Station CHAO3 - 9432780 - Charleston, OR Image indicating link to RSS feed of recent meteorological observations for station CHAO3


Conditions at CHAO3 as of
(5:36 am PDT)
1236 GMT on 06/24/2024:
     

Click on the graph icon in the table below to see a time series plot of the last five days of that observation.

5-day plot - Wind Direction Wind Direction (WDIR): N ( 350 deg true )
5-day plot - Wind Speed Wind Speed (WSPD): 1.9 kts
5-day plot - Wind Gust Wind Gust (GST): 4.1 kts
5-day plot - Atmospheric Pressure Atmospheric Pressure (PRES):30.06 in
5-day plot - Water Temperature Water Temperature (WTMP): 50.0 °F
5-day plot - Wind Speed at 10 Meters Wind Speed at 10 meters (WSPD10M): 1.9 kts
5-day plot - Wind Speed at 20 Meters Wind Speed at 20 meters (WSPD20M): 1.9 kts
5-day plot -  Wind Speed, Wind Gust and Atmospheric Pressure Combined plot of Wind Speed, Gust, and Air Pressure
NOS Water Level Observation Network Water Level
Previous observations
TIME
(PDT)
5-day plot - Wind Direction
WDIR
 
5-day plot - Wind Speed
WSPD
kts
5-day plot - Wind Gust
GST
kts
5-day plot - Wave Height
WVHT
ft
5-day plot - Dominant Wave Period
DPD
sec
5-day plot - Average Wave Period
APD
sec
5-day plot - Mean Wave Direction
MWD
 
5-day plot - Atmospheric Pressure
PRES
in
5-day plot - Pressure Tendency
PTDY
in
5-day plot - Air Temperature
ATMP
°F
5-day plot - Water Temperature
WTMP
°F
5-day plot - Dew Point
DEWP
°F
5-day plot - Salinity
SAL
psu
5-day plot - Visibility
VIS
nmi
5-day plot - Tide (above MLLW)
TIDE
ft
2024-06-24 05:30 am N 1.9 4.1----30.05-- 50.0----
2024-06-24 05:24 am N 2.9 5.1----30.05-- 50.0----
2024-06-24 05:18 am N 4.1 5.1----30.05-- 50.0----
2024-06-24 05:12 am N 2.9 5.1----30.05-- 50.0----
2024-06-24 05:06 am N 2.9 4.1----30.05-- 50.0----
2024-06-24 05:00 am NW 2.9 2.9----30.05+0.00- 49.8----
2024-06-24 04:54 amNNW 2.9 5.1----30.05-- 49.8----
2024-06-24 04:48 amNNW 1.9 4.1----30.05-- 49.8----
2024-06-24 04:42 am N 2.9 4.1----30.05-- 49.8----
2024-06-24 04:36 am N 2.9 5.1----30.05-- 49.8----
2024-06-24 04:30 am N 1.0 2.9----30.05-- 49.8----
2024-06-24 04:24 amNNE 1.0 5.1----30.05-- 49.8----
2024-06-24 04:18 amNNE 1.9 4.1----30.05-- 49.8----
2024-06-24 04:12 am NE 2.9 5.1----30.05-- 49.8----
2024-06-24 04:06 am NE 2.9 5.1----30.05-- 49.8----
2024-06-24 04:00 amNNE 1.9 4.1----30.05-0.01- 49.8----
2024-06-24 03:54 amNNE 4.1 6.0----30.05-- 49.6----
2024-06-24 03:48 amENE 4.1 6.0----30.05-- 49.6----
2024-06-24 03:42 amNNE 4.1 6.0----30.05-- 49.8----
2024-06-24 03:36 am N 2.9 5.1----30.05-- 49.6----
2024-06-24 03:30 am NE 4.1 8.0----30.05-- 49.8----
2024-06-24 03:24 amNNE 5.1 7.0----30.05-- 49.8----
2024-06-24 03:18 amENE 1.9 7.0----30.05-- 49.8----
2024-06-24 03:12 amNNE 5.1 7.0----30.06-- 49.8----
2024-06-24 03:06 amNNE 2.9 5.1----30.06-- 49.8----
2024-06-24 03:00 am NE 1.9 4.1----30.06-0.01- 50.0----
2024-06-24 02:54 amNNE 2.9 5.1----30.06-- 50.0----
2024-06-24 02:48 amNNE 1.9 4.1----30.06-- 50.0----
2024-06-24 02:42 amNNE 1.9 4.1----30.06-- 49.8----
2024-06-24 02:36 amENE 1.0 2.9----30.06-- 49.8----
2024-06-24 02:30 am NE 1.9 4.1----30.06-- 49.8----
2024-06-24 02:24 am NE 1.9 4.1----30.06-- 49.8----
2024-06-24 02:18 amNNE 2.9 4.1----30.06-- 49.6----
2024-06-24 02:12 amNNE 2.9 5.1----30.06-- 49.6----
2024-06-24 02:06 amNNE 2.9 4.1----30.06-- 49.6----
2024-06-24 02:00 amNNE 1.9 4.1----30.06-0.01- 49.6----
2024-06-24 01:54 amNNE 2.9 5.1----30.06-- 49.6----
2024-06-24 01:48 am NE 2.9 5.1----30.06-- 49.6----
2024-06-24 01:42 amENE 2.9 5.1----30.06-- 49.6----
2024-06-24 01:36 am E 2.9 5.1----30.06-- 49.6----
2024-06-24 01:30 amENE 2.9 6.0----30.06-- 49.6----
2024-06-24 01:24 amENE 2.9 5.1----30.06-- 49.6----
2024-06-24 01:18 amENE 2.9 5.1----30.06-- 49.6----
2024-06-24 01:12 am NE 2.9 5.1----30.06-- 49.6----
2024-06-24 01:06 am NE 2.9 5.1----30.06-- 49.8----
2024-06-24 01:00 amENE 2.9 5.1----30.06-0.01- 49.8----
2024-06-24 12:54 am NE 2.9 4.1----30.06-- 49.8----
2024-06-24 12:48 am NE 2.9 5.1----30.06-- 49.8----
2024-06-24 12:42 am NE 1.9 5.1----30.06-- 49.8----
2024-06-24 12:36 am NE 2.9 5.1----30.06-- 49.8----
2024-06-24 12:30 amNNE 4.1 5.1----30.06-- 49.8----
2024-06-24 12:24 amNNE 1.9 5.1----30.06-- 49.8----
2024-06-24 12:18 amNNE 4.1 6.0----30.06-- 50.0----
2024-06-24 12:12 am N 4.1 6.0----30.07-- 50.0----
2024-06-24 12:06 am N 4.1 6.0----30.07-- 50.2----
2024-06-24 12:00 amNNW 2.9 6.0----30.07+0.00- 50.2----
2024-06-23 11:36 pm N 1.9 2.9----30.07-- 50.5----
2024-06-23 11:30 pm N 1.9 2.9----30.07-- 50.7----
2024-06-23 11:24 pm N 1.9 2.9----30.07-- 51.3----
2024-06-23 11:18 pm N 1.9 5.1----30.07-- 51.8----
2024-06-23 11:12 pm N 1.9 4.1----30.07-- 52.0----
2024-06-23 11:06 pmENE 1.0 4.1----30.07-- 52.2----
2024-06-23 11:00 pm NE 1.9 6.0----30.07+0.00- 52.3----
2024-06-23 10:54 pm N 6.0 8.0----30.07-- 52.5----
2024-06-23 10:48 pm NE 1.9 4.1----30.07-- 52.5----
2024-06-23 10:42 pmENE 2.9 5.1----30.07-- 52.7----
2024-06-23 10:36 pmENE 2.9 5.1----30.07-- 52.9----
2024-06-23 10:30 pm NE 2.9 5.1----30.07-- 52.9----
2024-06-23 10:24 pm NE 4.1 5.1----30.07-- 53.1----
2024-06-23 10:18 pm NE 4.1 6.0----30.07-- 52.9----
2024-06-23 10:12 pmNNE 2.9 5.1----30.07-- 52.9----
2024-06-23 10:06 pm NE 4.1 5.1----30.07-- 53.1----
2024-06-23 10:00 pm NE 4.1 5.1----30.07+0.00- 53.2----
2024-06-23 09:54 pmNNE 4.1 5.1----30.07-- 53.4----
2024-06-23 09:48 pm NE 4.1 5.1----30.06-- 53.6----
2024-06-23 09:42 pm NE 2.9 5.1----30.07-- 54.1----
2024-06-23 09:36 pm E 2.9 5.1----30.07-- 54.3----
2024-06-23 09:30 pmENE 1.9 4.1----30.07-- 54.3----
2024-06-23 09:24 pmENE 1.0 4.1----30.07-- 54.3----
2024-06-23 09:18 pmENE 1.9 2.9----30.06-- 54.3----
2024-06-23 09:12 pmENE 1.9 4.1----30.06-- 54.5----
2024-06-23 09:06 pmENE 1.9 4.1----30.06-- 54.9----
2024-06-23 09:00 pmENE 2.9 2.9----30.06+0.00- 55.6----
2024-06-23 08:54 pmNNE 2.9 5.1----30.06-- 55.2----
2024-06-23 08:48 pmENE 1.9 4.1----30.06-- 55.0----
2024-06-23 08:42 pm NE 1.9 4.1----30.07-- 54.7----
2024-06-23 08:36 pm N 1.9 5.1----30.07-- 54.7----
2024-06-23 08:30 pm N 1.9 4.1----30.07-- 54.5----
2024-06-23 08:24 pm N 2.9 7.0----30.07-- 54.3----
2024-06-23 08:18 pm N 4.1 8.0----30.07-- 54.1----
2024-06-23 08:12 pm N 5.1 8.0----30.07-- 54.0----
2024-06-23 08:06 pm N 4.1 8.0----30.07-- 53.8----
2024-06-23 08:00 pm N 4.1 8.0----30.07+0.00- 53.8----
2024-06-23 07:54 pm N 4.1 8.0----30.07-- 53.2----
2024-06-23 07:48 pm N 4.1 8.0----30.07-- 53.2----
2024-06-23 07:42 pm N 5.1 8.9----30.07-- 53.2----
2024-06-23 07:36 pm N 6.0 7.0----30.07-- 53.4----
2024-06-23 07:30 pm N 5.1 8.9----30.07-- 53.4----
2024-06-23 07:24 pm N 5.1 8.0----30.07-- 52.9----
2024-06-23 07:18 pm N 6.0 9.9----30.07-- 52.7----
2024-06-23 07:12 pm N 5.1 8.9----30.06-- 52.5----
2024-06-23 07:06 pm N 4.1 8.9----30.06-- 52.5----
2024-06-23 07:00 pm N 6.0 9.9----30.06-0.01- 52.3----
2024-06-23 06:54 pm N 7.0 8.9----30.07-- 52.2----
2024-06-23 06:48 pm N 6.0 8.9----30.07-- 52.2----
2024-06-23 06:42 pm N 6.0 8.9----30.07-- 52.2----
2024-06-23 06:36 pm N 7.0 8.9----30.07-- 52.0----
2024-06-23 06:30 pm N 7.0 9.9----30.07-- 52.0----
2024-06-23 06:24 pm N 7.0 9.9----30.07-- 52.0----
2024-06-23 06:18 pm N 7.0 9.9----30.07-- 52.0----
2024-06-23 06:12 pm N 8.9 11.1----30.07-- 51.6----
2024-06-23 06:06 pmNNW 8.0 11.1----30.07-- 51.6----
2024-06-23 06:00 pmNNW 8.9 11.1----30.07+0.00- 51.6----
2024-06-23 05:54 pmNNW 8.0 11.1----30.07-- 51.8----
2024-06-23 05:48 pm N 8.0 9.9----30.07-- 51.6----
2024-06-23 05:42 pm N 8.0 9.9----30.07-- 51.6----
2024-06-23 05:36 pm N 5.1 9.9----30.07-- 51.3----
2024-06-23 05:30 pm N 7.0 11.1----30.07-- 51.4----
2024-06-23 05:24 pm N 7.0 9.9----30.07-- 51.3----
2024-06-23 05:18 pm N 7.0 9.9----30.07-- 51.1----
2024-06-23 05:12 pm N 8.0 9.9----30.07-- 51.1----
2024-06-23 05:06 pm N 8.0 9.9----30.07-- 51.1----
2024-06-23 05:00 pm N 8.0 9.9----30.07-0.01- 51.1----
2024-06-23 04:54 pm N 8.0 11.1----30.07-- 51.1----
2024-06-23 04:48 pm N 8.0 11.1----30.07-- 51.1----
2024-06-23 04:42 pm N 8.0 11.1----30.07-- 51.1----
2024-06-23 04:36 pm N 8.0 11.1----30.07-- 51.1----
2024-06-23 04:30 pm N 7.0 8.9----30.08-- 50.9----
2024-06-23 04:24 pm N 8.0 11.1----30.08-- 51.4----
2024-06-23 04:18 pm N 8.9 11.1----30.07-- 51.4----
2024-06-23 04:12 pm N 8.0 11.1----30.08-- 51.4----
2024-06-23 04:06 pmNNW 9.9 13.0----30.08-- 51.4----
2024-06-23 04:00 pmNNW 8.9 11.1----30.08+0.00- 51.1----
2024-06-23 03:54 pmNNW 7.0 9.9----30.08-- 50.9----
2024-06-23 03:48 pm N 8.0 9.9----30.08-- 50.9----
2024-06-23 03:42 pmNNW 8.0 11.1----30.08-- 50.7----
2024-06-23 03:36 pmNNW 8.9 9.9----30.08-- 50.5----
2024-06-23 03:30 pmNNW 8.9 12.0----30.08-- 50.4----
2024-06-23 03:24 pmNNW 9.9 12.0----30.08-- 50.4----
2024-06-23 03:18 pmNNW 8.9 11.1----30.08-- 50.4----
2024-06-23 03:12 pmNNW 9.9 12.0----30.08-- 50.5----
2024-06-23 03:06 pmNNW 9.9 12.0----30.08-- 50.5----
2024-06-23 03:00 pmNNW 8.9 11.1----30.08+0.00- 50.5----
2024-06-23 02:54 pmNNW 8.9 12.0----30.08-- 50.5----
2024-06-23 02:48 pmNNW 8.9 12.0----30.08-- 50.5----
2024-06-23 02:42 pmNNW 9.9 12.0----30.08-- 50.5----
2024-06-23 02:36 pmNNW 8.9 12.0----30.08-- 50.5----
2024-06-23 02:30 pmNNW 8.0 11.1----30.08-- 50.5----
2024-06-23 02:24 pmNNW 6.0 7.0----30.08-- 50.5----
2024-06-23 02:18 pm N 6.0 9.9----30.08-- 50.5----
2024-06-23 02:12 pm N 6.0 11.1----30.08-- 50.5----
2024-06-23 02:06 pmNNW 8.9 11.1----30.08-- 50.5----
2024-06-23 02:00 pmNNW 8.9 11.1----30.08+0.00- 50.5----
2024-06-23 01:54 pmNNW 8.0 9.9----30.08-- 50.4----
2024-06-23 01:48 pmNNW 8.9 11.1----30.08-- 50.4----
2024-06-23 01:42 pmNNW 9.9 12.0----30.08-- 50.2----
2024-06-23 01:36 pmNNW 9.9 12.0----30.08-- 50.2----
2024-06-23 01:30 pmNNW 8.9 12.0----30.08-- 50.2----
2024-06-23 01:24 pmNNW 8.9 9.9----30.08-- 50.2----
2024-06-23 01:18 pmNNW 7.0 8.9----30.08-- 50.0----
2024-06-23 01:12 pmNNW 8.0 9.9----30.08-- 50.0----
2024-06-23 01:06 pmNNW 8.0 9.9----30.09-- 50.2----
2024-06-23 01:00 pmNNW 8.0 11.1----30.08+0.01- 50.2----
2024-06-23 12:54 pmNNW 9.9 13.0----30.08-- 50.4----
2024-06-23 12:48 pmNNW 8.9 12.0----30.08-- 50.5----
2024-06-23 12:42 pmNNW 11.1 13.0----30.08-- 50.7----
2024-06-23 12:36 pmNNW 8.9 12.0----30.09-- 51.1----
2024-06-23 12:30 pmNNW 6.0 8.0----30.09-- 51.3----
2024-06-23 12:24 pmNNW 7.0 8.9----30.09-- 51.6----
2024-06-23 12:18 pmNNW 7.0 9.9----30.09-- 52.3----
2024-06-23 12:12 pmNNW 7.0 8.9----30.09-- 53.1----
2024-06-23 12:06 pmNNW 7.0 8.9----30.09-- 54.0----
2024-06-23 12:00 pmNNW 7.0 9.9----30.08+0.01- 54.3----
2024-06-23 11:54 am N 8.0 11.1----30.08-- 54.5----
2024-06-23 11:48 am N 7.0 12.0----30.08-- 55.0----
2024-06-23 11:42 am N 7.0 9.9----30.08-- 55.6----
2024-06-23 11:36 am N 8.0 11.1----30.08-- 56.1----
2024-06-23 11:30 am N 5.1 11.1----30.08-- 56.5----
2024-06-23 11:24 am N 8.0 11.1----30.08-- 56.7----
2024-06-23 11:18 am N 5.1 12.0----30.08-- 56.5----
2024-06-23 11:12 am N 8.0 12.0----30.08-- 56.7----
2024-06-23 11:06 am N 6.0 11.1----30.08-- 56.8----
2024-06-23 11:00 am N 8.9 14.0----30.08+0.02- 57.0----
2024-06-23 10:54 am N 11.1 13.0----30.08-- 57.0----
2024-06-23 10:48 am N 6.0 8.0----30.08-- 57.0----
2024-06-23 10:42 am N 5.1 8.9----30.08-- 56.8----
2024-06-23 10:36 am N 7.0 11.1----30.08-- 57.0----
2024-06-23 10:30 am N 5.1 8.9----30.08-- 57.2----
2024-06-23 10:24 am N 6.0 8.9----30.08-- 57.7----
2024-06-23 10:18 am N 6.0 8.9----30.08-- 58.1----
2024-06-23 10:12 am N 5.1 8.0----30.07-- 58.1----
2024-06-23 10:06 am N 4.1 8.9----30.07-- 58.3----
2024-06-23 10:00 am N 7.0 9.9----30.07+0.03- 58.8----
2024-06-23 09:36 am N 6.0 8.0----30.07-- 59.7----
2024-06-23 09:30 am N 4.1 7.0----30.07-- 59.4----
2024-06-23 09:24 am N 5.1 8.0----30.07-- 59.5----
2024-06-23 09:18 am N 5.1 7.0----30.07-- 59.9----
2024-06-23 09:12 am N 5.1 8.0----30.07-- 59.7----
2024-06-23 09:06 am N 5.1 8.9----30.07-- 59.9----
2024-06-23 09:00 am N 5.1 8.0----30.07+0.03- 59.7----
2024-06-23 08:54 am N 5.1 7.0----30.07-- 59.7----
2024-06-23 08:48 am N 6.0 8.0----30.07-- 59.5----
2024-06-23 08:42 am N 6.0 8.9----30.07-- 59.5----
2024-06-23 08:36 am N 6.0 8.0----30.07-- 59.5----
2024-06-23 08:30 am N 5.1 8.0----30.07-- 59.0----
2024-06-23 08:24 am N 5.1 7.0----30.06-- 59.0----
2024-06-23 08:18 am N 5.1 8.9----30.06-- 58.8----
2024-06-23 08:12 am N 5.1 7.0----30.06-- 58.8----
2024-06-23 08:06 am N 5.1 8.0----30.06-- 58.5----
2024-06-23 08:00 am N 5.1 9.9----30.06+0.02- 58.3----
2024-06-23 07:54 am N 5.1 8.9----30.06-- 58.3----
2024-06-23 07:48 amNNE 5.1 7.0----30.06-- 58.1----
2024-06-23 07:42 am N 5.1 8.0----30.06-- 57.9----
2024-06-23 07:36 am N 5.1 7.0----30.05-- 57.6----
2024-06-23 07:30 am N 6.0 7.0----30.05-- 57.0----
2024-06-23 07:24 am N 6.0 8.0----30.05-- 56.7----
2024-06-23 07:18 am N 5.1 7.0----30.05-- 55.9----
2024-06-23 07:12 am N 5.1 7.0----30.05-- 55.2----
2024-06-23 07:06 amNNW 6.0 7.0----30.05-- 55.2----
2024-06-23 07:00 am N 4.1 6.0----30.05+0.01- 54.7----
2024-06-23 06:54 am N 5.1 6.0----30.04-- 54.3----
2024-06-23 06:48 am N 4.1 6.0----30.04-- 53.8----
2024-06-23 06:42 am N 2.9 4.1----30.04-- 53.2----
2024-06-23 06:36 amNNE 2.9 5.1----30.04-- 52.7----
2024-06-23 06:30 am N 4.1 5.1----30.04-- 52.0----
2024-06-23 06:24 am N 4.1 6.0----30.04-- 51.6----
2024-06-23 06:18 am N 5.1 6.0----30.04-- 50.9----
2024-06-23 06:12 am NE 5.1 6.0----30.04-- 50.4----
2024-06-23 06:06 amNNE 5.1 6.0----30.04-- 50.0----
2024-06-23 06:00 amNNE 5.1 6.0----30.04+0.01- 49.8----
2024-06-23 05:54 am NE 5.1 6.0----30.04-- 49.8----